Regional Weather Roundup
Issued by NWS

Home | Current Version | Previous Version | Graphics & Text | Print | Product List | Glossary On
Versions: 1 2 3 4 5 6 7 8 9 10 11 12 13 14 15 16 17 18 19 20 21 22 23 24 25 26 27 28 29 30 31 32 33 34 35 36 37 38 39 40 41 42 43 44 45 46 47 48 49 50
018
ASUS43 KMKX 221821
RWRWI

WISCONSIN REGIONAL WEATHER ROUNDUP
NATIONAL WEATHER SERVICE MILWAUKEE/SULLIVAN WI
100 PM CDT TUE AUG 22 2017

NOTE: "FAIR" INDICATES FEW OR NO CLOUDS BELOW 12,000 FEET WITH NO
SIGNIFICANT WEATHER AND/OR OBSTRUCTIONS TO VISIBILITY.

WIZ001-002-006>008-014>016-023>028-221900-
NORTHWEST WISCONSIN

CITY           SKY/WX    TMP DP  RH WIND       PRES   REMARKS
SUPERIOR ARPT    N/A     69  52  54 NW16G22   29.94S
6HR MIN TEMP:  55; 6HR MAX TEMP:  69;

ASHLAND        PTSUNNY   69  52  54 W15G24    29.91S
6HR MIN TEMP:  56; 6HR MAX TEMP:  71;

HAYWARD        MOSUNNY   68  47  46 W13G23    29.95F
6HR MIN TEMP:  57; 6HR MAX TEMP:  69;

SIREN          CLOUDY    72  46  39 W17G29    29.98S
6HR MIN TEMP:  55; 6HR MAX TEMP:  73;

CUMBERLAND     PTSUNNY   68  46  45 W22       29.99S
RICE LAKE      PTSUNNY   69  51  51 W15G21    30.00F
6HR MIN TEMP:  57; 6HR MAX TEMP:  69;

CHETEK         MOSUNNY   69  52  54 NW7G20    29.99S
6HR MIN TEMP:  58; 6HR MAX TEMP:  69;

LADYSMITH      MOSUNNY   70  50  50 W15G22    29.98S
6HR MIN TEMP:  57; 6HR MAX TEMP:  70;

EAU CLAIRE     MOSUNNY   70  49  47 NW12G21   29.98F
6HR MIN TEMP:  60; 6HR MAX TEMP:  72;

MENOMONIE      MOSUNNY   71  50  48 W16G24    30.00F
6HR MIN TEMP:  60; 6HR MAX TEMP:  71;

NEW RICHMOND   SUNNY     71  47  42 W17G23    30.02S
6HR MIN TEMP:  58; 6HR MAX TEMP:  71;

OSCEOLA        MOSUNNY   71  50  47 W12G18    30.04S
6HR MIN TEMP:  58; 6HR MAX TEMP:  71;

$$

WIZ003>005-009-010-017-018-221900-
NORTH CENTRAL WISCONSIN

CITY           SKY/WX    TMP DP  RH WIND       PRES   REMARKS
MANITOWISH WTR PTSUNNY   66  49  55 W12G21    29.91S
6HR MIN TEMP:  55; 6HR MAX TEMP:  66;

ARBOR VITAE    PTSUNNY   65  50  56 NW9       29.91S
6HR MIN TEMP:  57; 6HR MAX TEMP:  66;

WOODRUFF       PTSUNNY   65  50  56 NW9       29.91S
6HR MIN TEMP:  57; 6HR MAX TEMP:  66;

RHINELANDER    PTSUNNY   67  49  52 NW14G24   29.91F
6HR MIN TEMP:  58; 6HR MAX TEMP:  67;

EAGLE RIVER    CLOUDY    66  45  46 W17G26    29.89S
6HR MIN TEMP:  56; 6HR MAX TEMP:  67;

LAND O LAKES   MOSUNNY   65  47  51 NW14G22   29.90S
6HR MIN TEMP:  56; 6HR MAX TEMP:  67;

PHILLIPS       PTSUNNY   67  48  51 W13G22    29.93S
6HR MIN TEMP:  55; 6HR MAX TEMP:  67;

TOMAHAWK         N/A     65  48  53 W10G18    29.93S
6HR MIN TEMP:  56; 6HR MAX TEMP:  66;

MEDFORD        MOSUNNY   66  48  52 NW14G25   29.95S
6HR MIN TEMP:  57; 6HR MAX TEMP:  66;

MERRILL        MOSUNNY   68  50  52 N12G22    29.93S
$$

WIZ029-030-035-036-043>047-221900-
CENTRAL WISCONSIN

CITY           SKY/WX    TMP DP  RH WIND       PRES   REMARKS
WAUSAU         MOSUNNY   69  48  47 NW17G24   29.91S
6HR MIN TEMP:  61; 6HR MAX TEMP:  69;

MOSINEE        PTSUNNY   68  52  56 W17G23    29.94S
MARSHFIELD     MOSUNNY   70  47  43 NW15G26   29.95S
6HR MIN TEMP:  60; 6HR MAX TEMP:  70;

STEVENS POINT  PTSUNNY   68  49  49 NW13G22   29.93S
6HR MIN TEMP:  61; 6HR MAX TEMP:  68;

WAUPACA        MOSUNNY   74  48  39 NW13G26   29.91R
6HR MIN TEMP:  67; 6HR MAX TEMP:  74;

WAUTOMA        NOT AVBL
WISC RAPIDS    MOSUNNY   70  50  49 NW13      29.95S
6HR MIN TEMP:  64; 6HR MAX TEMP:  73;

CAMP DOUGLAS   MOSUNNY   72  52  49 NW13G24   29.95S
$$

WIZ011>013-019>022-031-037>040-048>050-221900-
NORTHEAST WISCONSIN

CITY           SKY/WX    TMP DP  RH WIND       PRES   REMARKS
ANTIGO         MOSUNNY   67  50  54 NW18G28   29.91R
6HR MIN TEMP:  58; 6HR MAX TEMP:  67;

SHAWANO        MOSUNNY   73  49  43 NW15G21   29.87S
6HR MIN TEMP:  67; 6HR MAX TEMP:  73;

OCONTO         MOSUNNY   73  50  44 NW14G22   29.84R
6HR MIN TEMP:  64; 6HR MAX TEMP:  73;

STURGEON BAY   SUNNY     72  55  55 NW12G18   29.84R
6HR MIN TEMP:  64; 6HR MAX TEMP:  72;

GREEN BAY      SUNNY     72  56  57 NW13G23   29.86S
6HR MIN TEMP:  66; 6HR MAX TEMP:  73;

MANITOWOC      PTSUNNY   72  53  51 NW17G24   29.86R
APPLETON       PTSUNNY   72  45  37 W21G29    29.88S
CLINTONVILLE   MOSUNNY   70  45  40 N12G21    29.88F
OSHKOSH        MOSUNNY   73  52  47 NW20G26   29.88S
6HR MIN TEMP:  66; 6HR MAX TEMP:  73;

$$

WIZ032>034-041-042-053>061-221900-
SOUTHWEST WISCONSIN

CITY           SKY/WX    TMP DP  RH WIND       PRES   REMARKS
LA CROSSE      SUNNY     77  50  38 NW17      29.99R
6HR MIN TEMP:  68; 6HR MAX TEMP:  77;

SPARTA         SUNNY     71  50  46 NW13G21   29.98S
6HR MIN TEMP:  62; 6HR MAX TEMP:  71;

VIROQUA        MOSUNNY   69  53  54 NW16G22   30.00S
6HR MIN TEMP:  63; 6HR MAX TEMP:  70;

BOSCOBEL       MOSUNNY   76  52  43 NW13      29.98S
6HR MIN TEMP:  67; 6HR MAX TEMP:  77;

PRAIRIE DU CHI SUNNY     74  48  40 NW15      29.99S
6HR MIN TEMP:  65; 6HR MAX TEMP:  74;

PLATTEVILLE    PTSUNNY   72  57  60 NW13      29.99R
6HR MIN TEMP:  64; 6HR MAX TEMP:  73;

$$

WIZ056-057-062-063-064-067-068-221900-
SOUTH CENTRAL WISCONSIN

CITY           SKY/WX    TMP DP  RH WIND       PRES   REMARKS
REEDSBURG      PTSUNNY   73  52  47 NW13G20   29.94F
6HR MIN TEMP:  65; 6HR MAX TEMP:  74;

BARABOO/DELLS  MOSUNNY   73  47  40 W18G24    29.94F
6HR MIN TEMP:  65; 6HR MAX TEMP:  74;

LONE ROCK      MOSUNNY   75  54  47 NW14      29.95S
6HR MIN TEMP:  66; 6HR MAX TEMP:  75;

MINERAL POINT  MOSUNNY   73  52  46 NW14      29.98R
MADISON        PTSUNNY   73  52  47 NW15G25   29.93S
6HR MIN TEMP:  66; 6HR MAX TEMP:  74;

MIDDLETON      PTSUNNY   73  54  51 NW15      29.95R
6HR MIN TEMP:  66; 6HR MAX TEMP:  75;

WATERTOWN      PTSUNNY   73  55  53 NW15      29.91S
6HR MIN TEMP:  66; 6HR MAX TEMP:  74;

MONROE         MOSUNNY   72  54  53 NW13G22   29.95S
JANESVILLE     MOSUNNY   79  55  44 NW18G25   29.91S
$$

WIZ051-052-058>065-066-070>072-221900-
SOUTHEAST WISCONSIN

CITY           SKY/WX    TMP DP  RH WIND       PRES   REMARKS
MILWAUKEE      PTSUNNY   78  54  43 NW21G33   29.87R
6HR MIN TEMP:  71; 6HR MAX TEMP:  80;

WAUKESHA       MOSUNNY   72  55  56 W17       29.91R
MILWAUKEE/TIMM MOSUNNY   75  50  41 W22       29.88R
RACINE         MOSUNNY   78  57  48 NW16G25   29.89R
6HR MIN TEMP:  69; 6HR MAX TEMP:  78;

KENOSHA        MOSUNNY   78  56  46 NW14G26   29.88S
6HR MIN TEMP:  69; 6HR MAX TEMP:  79;

FOND DU LAC    MOSUNNY   72  51  47 NW14G23   29.89S
6HR MIN TEMP:  67; 6HR MAX TEMP:  74;

SHEBOYGAN      MOSUNNY   73  56  54 NW16G23   29.87R
6HR MIN TEMP:  67; 6HR MAX TEMP:  74;

WEST BEND      MOSUNNY   72  52  49 NW15G23   29.89R
JUNEAU         MOSUNNY   71  54  54 NW13G21   29.92S
6HR MIN TEMP:  65; 6HR MAX TEMP:  71;

$$

LSZ147-162-221900-
LAKE SUPERIOR

STATION/POSITION TIME  TEMP    WIND        PRES    WAVE
                       AIR SEA DIR/SP/G            HT/PER
                 (UTC) (F)     (DEG/KT/KT) (MB)    (FT/S)
W MID LAKE BUOY  1750   61 60  260/ 19/ 23 1009.6F   3/ 5
DEVILS ISLAND    1800   63     240/ 21/ 26 1011.5F
SAXON HARBOR     1800   67     290/ 11/ 22 1012.2
$$

LMZ867-665-643>646-221900-
LAKE MICHIGAN

STATION/POSITION TIME  TEMP    WIND        PRES    WAVE
                       AIR SEA DIR/SP/G            HT/PER
                 (UTC) (F)     (DEG/KT/KT) (MB)    (FT/S)
S GREEN BAY BUOY 1800   70 71  290/ 16/ 21 1010.3
N MID LAKE BUOY  1750   66 67  280/ 16/ 19 1008.9R   4/ 5
NORTHPORT PIER   1740   69     300/ 12/ 18 1008.8S
KEWAUNEE LAKESHO 1754   71     300/ 10/ 14 1009.8R
SHEBOYGAN LAKESH 1800   71     320/ 22/ 27 1010.7R
PORT WASHINGTON  1730   76     300/ 11/ 18 1012.2R
ATWATER



USA.gov is the U.S. government's official web portal to all federal, state and local government web resources and services.